Bedford, MA

5:53 AM EST on December 10, 2019 (GMT -0500)
Hanscom

Weather History for KBED - November, 2019

Change the Weather History Date:

Sunday, November 17, 2019

  Actual Average Record
Temperature  
Mean Temperature 28 °F -  
Max Temperature 36 °F 49 °F 68 °F (2006)
Min Temperature 19 °F 28 °F 7 °F (1967)
Degree Days  
Heating Degree Days 38    
Moisture  
Dew Point 18 °F    
Average Humidity 63    
Maximum Humidity 82    
Minimum Humidity 42    
Precipitation  
Precipitation 0.00 in - - ()
Sea Level Pressure  
Sea Level Pressure 30.40 in    
Wind  
Wind Speed 6 mph ()    
Max Wind Speed 13 mph    
Max Gust Speed -    
Visibility 9.4 miles    
Events Snow    
Averages and records for this station are not official NWS values.
T = Trace of Precipitation, MM = Missing Value Source: Averaged Metar Reports

Daily Weather History Graph

Daily Weather History Graph

Search for Another Location

Airport or City:

Astronomy

Nov. 17, 2019 Rise Set
Actual Time 6:38 AM EST 4:21 PM EST
Civil Twilight 6:07 AM EST 4:51 PM EST
Nautical Twilight 5:33 AM EST 5:25 PM EST
Astronomical Twilight 5:00 AM EST 5:59 PM EST
Moon 8:53 PM EST (11/17) 11:23 AM EST (11/17)
Length of Visible Light 10h 43m
Length of Day
9h 42m
Waning Gibbous, 73% of the Moon is Illuminated
Nov 17
Waning Gibbous
Nov 19
Last Quarter
Nov 26
New
Dec 4
First Quarter
Dec 12
Full

Hourly Weather History & Observations

Time (EST) Temp. Windchill Dew Point Humidity Pressure Visibility Wind Dir Wind Speed Gust Speed Precip Events Conditions
12:51 AM 21.9 °F 15.7 °F 1.9 °F 42% 30.53 in 10.0 mi North 4.6 mph - N/A   Clear
1:51 AM 21.0 °F 16.2 °F 3.0 °F 46% 30.53 in 10.0 mi NNW 3.5 mph - N/A   Clear
2:51 AM 19.9 °F 14.9 °F 3.9 °F 50% 30.53 in 10.0 mi North 3.5 mph - N/A   Clear
3:51 AM 19.9 °F - 3.9 °F 50% 30.52 in 10.0 mi Calm Calm - N/A   Clear
4:51 AM 19.9 °F 12.1 °F 3.9 °F 50% 30.52 in 10.0 mi North 5.8 mph - N/A   Clear
5:51 AM 19.9 °F 11.1 °F 5.0 °F 52% 30.51 in 10.0 mi North 6.9 mph - N/A   Clear
6:51 AM 19.9 °F 12.1 °F 6.1 °F 55% 30.51 in 10.0 mi North 5.8 mph - N/A   Scattered Clouds
7:51 AM 21.9 °F 15.7 °F 9.0 °F 58% 30.52 in 10.0 mi North 4.6 mph - N/A   Scattered Clouds
8:51 AM 26.1 °F 17.6 °F 12.9 °F 58% 30.50 in 10.0 mi North 8.1 mph - N/A   Overcast
9:51 AM 30.0 °F 24.1 °F 16.0 °F 56% 30.50 in 10.0 mi North 5.8 mph - N/A   Overcast
10:51 AM 32.0 °F 25.6 °F 18.0 °F 56% 30.48 in 10.0 mi NNE 6.9 mph - N/A   Overcast
11:51 AM 34.0 °F 26.0 °F 21.0 °F 59% 30.44 in 10.0 mi NNE 10.4 mph - N/A   Overcast
12:51 PM 35.1 °F 27.4 °F 23.0 °F 61% 30.41 in 10.0 mi NNE 10.4 mph - N/A   Overcast
1:51 PM 36.0 °F 29.0 °F 25.0 °F 64% 30.39 in 7.0 mi NNE 9.2 mph - 0.00 in Snow Light Snow
2:51 PM 35.1 °F 27.4 °F 26.1 °F 70% 30.38 in 9.0 mi NNE 10.4 mph - 0.00 in   Overcast
3:51 PM 34.0 °F 25.0 °F 27.0 °F 75% 30.35 in 10.0 mi NNE 12.7 mph - N/A   Mostly Cloudy
4:51 PM 34.0 °F 26.6 °F 27.0 °F 75% 30.33 in 10.0 mi North 9.2 mph - N/A   Overcast
5:51 PM 34.0 °F 26.6 °F 28.0 °F 79% 30.32 in 6.0 mi NNE 9.2 mph - 0.00 in Snow Light Snow
6:51 PM 34.0 °F 26.6 °F 28.9 °F 82% 30.30 in 4.0 mi North 9.2 mph - 0.00 in Snow Light Snow
7:42 PM 34.0 °F 27.2 °F 28.9 °F 82% 30.23 in 10.0 mi NNE 8.1 mph - 0.00 in   Overcast
7:51 PM 34.0 °F 28.0 °F 28.9 °F 82% 30.28 in 10.0 mi North 6.9 mph - 0.00 in   Overcast
9:51 PM 33.1 °F 25.5 °F 28.0 °F 82% 30.22 in 10.0 mi NNE 9.2 mph - N/A   Overcast
10:51 PM 33.1 °F 26.9 °F 26.1 °F 75% 30.20 in 10.0 mi North 6.9 mph - N/A   Overcast
11:51 PM 34.0 °F 25.5 °F 23.0 °F 64% 30.17 in 10.0 mi North 11.5 mph - N/A   Overcast